Regional Weather Roundup
Issued by NWS Grand Forks, ND

Home | Current Version | Previous Version | Text Only | Print | Product List | Glossary Off
Versions: 1 2 3 4 5 6 7 8 9 10 11 12 13 14 15 16 17 18 19 20 21 22 23 24 25 26 27 28 29 30 31 32 33 34 35 36 37 38 39 40 41 42 43 44 45 46 47 48 49 50

000
ASUS43 KFGF 230831
RWRFGF
PRAIRIE TO PINES  WEATHER ROUNDUP
NATIONAL WEATHER SERVICE EASTERN NORTH DAKOTA/GRAND FORKS ND
300 AM CDT THU OCT 23 2014

 **SATELLITE DATA USED TO AUGMENT SKY COVER AT AUTOMATED STATIONS**
 *****  WEATHER ACROSS EASTERN NORTH DAKOTA  *****

CITY           SKY/WX    TMP DP  RH WIND       PRES   REMARKS
GRAND FORKS    CLOUDY    48  45  89 SW8       29.84S
GRAND FRKS AFB CLOUDY    49  49  99 SW8       29.84S
GRAND FRKS NWS   N/A     48 N/A N/A SW5         N/A
DEVILS LAKE    PTCLDY    52  39  62 SW12      29.82S
FARGO          CLEAR     47  45  93 SW7       29.89S
WAHPETON ARPT  SUNNY     41  39  93 S3        29.93S
$$

 ***** WEATHER ACROSS CENTRAL AND WESTERN NORTH DAKOTA  *****

CITY           SKY/WX    TMP DP  RH WIND       PRES   REMARKS
BISMARCK       CLEAR     40  33  76 W5        29.92S
MINOT          CLEAR     47  34  60 SW13      29.83S
JAMESTOWN      CLEAR     43  38  82 W7        29.89S
MINOT AFB      CLEAR     44  36  72 SW8       29.82S
GARRISON         N/A     41  38  89 W5        29.87S
WILLISTON      CLEAR     39  32  76 SW8       29.87R
DICKINSON      CLEAR     37  27  67 SW10      29.89F
HETTINGER      CLEAR     40  26  57 S3        29.95F
$$

 *****  OTHER AIRPORT OBSERVATIONS IN OUR AREA  *****

CITY           SKY/WX    TMP DP  RH WIND       PRES   REMARKS
WALHALLA         N/A     52  48  87 W8        29.78F
GRAFTON AIRPOR FAIR      45  45 100 SW8       29.82
VALLEY CITY AR FAIR      39  39 100 SW7       29.90R
CANDO          FAIR      43  39  87 SW8       29.82F
CAVALIER APRT  FAIR      48  45  87 SW7       29.80R
GWINNER        SUNNY     43  43 100 SW9       29.93S
ROLLA          FAIR      45  41  87 SW8       29.82R
 ***** THE ABOVE OBSERVATIONS ARE NON NWS ARE NOT QUALITY
       CONTROLLED AND MAY MIS-REPORT RAIN FOR SNOW...
$$

  *****  WEATHER ACROSS NORTHERN MINNESOTA  *****

CITY           SKY/WX    TMP DP  RH WIND       PRES   REMARKS
FLAG ISLAND    CLOUDY    48  48 100 S10       29.81S FOG
WARROAD        PTCLDY    50  46  87 S6        29.83S
ROSEAU         CLOUDY    50  45  81 S8        29.82S
HALLOCK        CLEAR     46  45  93 S9        29.80S
THF RVR FALLS  CLEAR     46  45  93 S7        29.85S
BAUDETTE       CLOUDY    51  47  86 S9        29.86R
WASKISH        CLOUDY    52  48  87 CALM      29.87F
CROOKSTON      PTCLDY    45  45 100 SW9       29.86S
STEPHEN NDAWN    N/A     46  46 100 SW8         N/A
GREENBUSH NDAW   N/A     46  46 100 S8          N/A
$$
  *****  WEATHER ACROSS CENTRAL AND WEST MINNESOTA  *****

CITY           SKY/WX    TMP DP  RH WIND       PRES   REMARKS
FOSSTON        CLEAR     46  46 100 S10       29.88S
BEMIDJI        MOCLDY    48  47  97 S5        29.89F FOG
PARK RAPIDS    CLOUDY    52  51  97 S7        29.92S
ELBOW LAKE     FOG       46  46 100 S6        29.94F VSB 1/2
WADENA         FOG       46  46 100 S3        29.93S VSB<1/4
DETROIT LAKES  CLEAR     50  48  93 SW7       29.92F
MOORHEAD       CLEAR     46  46 100 S6        29.90F
FERGUS FALLS   FOG       46  45  93 S6        29.94F VSB 1/2
MORRIS MN      FOG       46  45  93 S6        29.94F VSB<1/4
STAPLES        CLOUDY    50  50 100 S5        29.94S FOG
$$
  *****  WEATHER ELSEWHERE ACROSS MINNESOTA  *****

CITY           SKY/WX    TMP DP  RH WIND       PRES   REMARKS
DULUTH         CLOUDY    52  38  58 S9        29.97F
INTRNTL FALLS  LGT RAIN  48  46  93 S8        29.89S
ELY            CLOUDY    50  36  57 S7        29.96F
CLOQUET        CLOUDY    52  39  62 S8        29.97F
WHEATON        CLEAR     45  43  93 SW5       29.95S
BRAINERD       LGT RAIN  50  49  96 S8        29.95S
HIBBING        LGT RAIN  48  43  82 S6        29.95F
ALEXANDRIA     MOCLDY    52  51  97 SW9       29.96S FOG
SAINT CLOUD    LGT RAIN  53  50  89 SE7       29.96F
MINNEAPOLIS    LGT RAIN  51  48  89 SE5       30.01S FOG
$$

  *****  WEATHER ACROSS SOUTH DAKOTA  *****

CITY           SKY/WX    TMP DP  RH WIND       PRES   REMARKS
SIOUX FALLS    FOG       47  46  97 CALM      30.02R VSB 1/4
BROOKINGS      NOT AVBL
WATERTOWN      FOG       40  39  97 S5        29.98S VSB 1/4
HURON          CLEAR     43  42  97 S6        29.98S
SISSETON         N/A     51  45  79 W10       29.93R
ABERDEEN       CLEAR     38  36  92 SW5       29.95S
MITCHELL       CLEAR     42  41  96 SW3       30.01S FOG
PIERRE         CLEAR     44  35  70 S6        29.98S
MOBRIDGE       CLEAR     41  36  82 E5        29.94S
RAPID CITY     CLEAR     42  33  70 NW8       30.02S
$$

  *****  SOME WEATHER IN NEARBY STATES *****

CITY           SKY/WX    TMP DP  RH WIND       PRES   REMARKS
GLASGOW MT     CLEAR     38  31  76 SE8       29.82F
GREAT FALLS MT PTCLDY    50  31  48 SW13      29.81F
CHEYENNE WY    CLEAR     40  29  64 W8        30.18R
SCOTTSBLUFF NE PTCLDY    36  29  75 CALM      30.11R
OMAHA NE       CLOUDY    63  59  87 S10       30.03R
DES MOINES IA  LGT RAIN  54  49  83 S8        30.09F
DAVENPORT IA   CLEAR     43  35  73 SE8       30.18S
CHICAGO IL     CLEAR     38  35  89 S5        30.23F
EAU CLAIRE WI  CLOUDY    49  42  77 SE7       30.07F
LA CROSSE WI   CLOUDY    50  43  77 SE8       30.10F
$$

  *****  SOME NATIONAL WEATHER *****

CITY           SKY/WX    TMP DP  RH WIND       PRES   REMARKS
LA GUARDIA NY  RAIN      53  47  79 N15       29.70S
RALEIGH NC     CLEAR     45  40  82 CALM      30.01F
ATLANTA GA     CLEAR     47  41  80 NW6       30.10S
NEW ORLEANS LA CLEAR     65  48  54 NE10      30.06S
OKLAHOMA CITY  CLOUDY    63  58  83 S8        30.11S
ALBUQUERQUE NM CLEAR     56  44  64 SE7       30.21R
SALT LAKE CITY PTCLDY    45  34  65 SE7       30.14F
LOS ANGELES CA PTCLDY    65  64  97 CALM      29.96S
BOISE ID       CLOUDY    58  41  53 E8        30.02S
SEATTLE WA     CLOUDY    53  49  86 S12       29.74R
$$

*** WEATHER ACROSS MANITOBA...SASKATCHEWAN AND ONTARIO ***
                ***ONTARIO***

CITY           SKY/WX    TMP DP  RH WIND       PRES   REMARKS
GERALDTON      PTCLDY    37  36  93 SW7       30.06F
THUNDER BAY    LGT RAIN  46  43  87 SE5       30.06S
SIOUX LOOKOUT  CLOUDY    50  39  66 S12       29.88F
TORONTO        CLEAR     43  39  87 N9        30.19S
BIG TROUT LK   CLOUDY    46  39  76 S6        29.80S
PICKLE LAKE    NOT AVBL
DRYDEN         LGT RAIN  52  43  71 S10G21    29.86S
KENORA         LGT RAIN  52  48  87 S13       29.82S
$$
                *** MANITOBA***

CITY           SKY/WX    TMP DP  RH WIND       PRES   REMARKS
BRANDON        PTCLDY    45  43  93 SW9       29.76R
DAUPHIN        CLOUDY    52  46  82 W16       29.68S
ISLAND LAKE    LGT RAIN  48  48 100 SE8       29.67S
PILOT MOUND      N/A     48  43  81 SW9         N/A
THE PAS        CLOUDY   N/A N/A N/A N7          N/A
THOMPSON       CLOUDY    41  41 100 NE12      29.74S
WINNIPEG       CLOUDY    52  48  87 SW12      29.75R
LYNN LAKE      LGT RAIN  39  37  93 NE10      29.79R VSB 1
CHURCHILL      CLOUDY    37  37 100 NE17      29.92R
GILLAM         CLOUDY    37  37 100 NE14      29.80R
$$
                ***SASKATCHEWAN***

CITY           SKY/WX    TMP DP  RH WIND       PRES   REMARKS
ESTEVAN        PTCLDY    39  36  87 SW9       29.81R
KINDERSLEY     PTCLDY    43  36  75 S10       29.66F
LLOYDMINSTER   CLEAR     43  32  65 SE9       29.59F
PRINCE ALBERT  FOG       32  32 100 SW2       29.71S VSB 3/8
REGINA         CLEAR     36  34  93 SW5       29.78R
YORKTON        CLOUDY    50  46  87 W10       29.72R
N. BATTLEFORD  CLEAR     41  34  75 E13       29.67F
LA RONGE       FOG       45  43  93 NE8       29.72S VSB 1/2
SASKATOON      PTCLDY    34  32  93 E6        29.73F
SWIFT CURRENT  CLEAR     41  36  81 S12       29.73S
$$
NOTE: THESE ARE AUTOMATED STATIONS WITH LIMITED QUALITY CONTROL
      "FAIR" INDICATES FEW OR NO CLOUDS BELOW 12,000 FEET WITH NO
      SIGNIFICANT WEATHER AND/OR OBSTRUCTIONS TO VISIBILITY.
      SKY/WX - SKY CONDITION AND SIGNIFICANT WEATHER.
      TMP - AIR TEMPERATURE.    DP   - DEWPOINT TEMPERATURE.
      RH  - RELATIVE HUMIDITY.  PRES - PRESSURE.
      HX  - HEAT INDEX.         WCI  - WIND CHILL INDEX.
$



USA.gov is the U.S. government's official web portal to all federal, state and local government web resources and services.